Terminal Aerodrome Forecast
Issued by NWS Dallas/Fort Worth, TX

Home | Current Version | Previous Version | Text Only | Print | Product List | Glossary On
Versions: 1 2 3 4 5 6 7 8 9 10 11 12 13 14 15 16 17 18 19 20 21 22 23 24 25 26 27 28 29 30 31 32 33 34 35 36 37 38
000
FTUS44 KFWD 270520
TAFACT
TAF
KACT 270520Z 2706/2806 02010KT P6SM BKN090
     FM271700 04011KT 6SM -SHRA BKN025 OVC040
     FM280300 03008KT 5SM -DZ BR OVC020=

USA.gov is the U.S. government's official web portal to all federal, state and local government web resources and services.